Flag for U.S.A. Weather past 2 weeks in Avalon (Santa Catalina Island), California, U.S.A.

Now
57 °F

Fog.


Feels Like: 57 °F
Forecast: 62 / 73 °F
Wind: No wind

Location: Catalina Airport

Current Time: Jul 7, 2015 at 6:54:52 AM

Latest Report: Jul 7, 2015 at 5:51 AM


Visibility: 0 mi

Pressure: 29.98 "Hg

Humidity: 100%

Dew point: 57 °F

Location of Avalon (Santa Catalina Island)Location

Historic Weather in Avalon (Santa Catalina Island) — Graph

°F

Avalon (Santa Catalina Island) temperature yesterday

Maximum temperature yesterday: 61 °F (at 10:51 AM)
Minimum temperature yesterday: 57 °F (at 2:00 AM)
Average temperature yesterday: 58 °F

Past Weeks' High & Low Weather Summary

 TemperatureHumidityPressure
High87 °F (Jun 29, 9:51 AM)100% (Jun 25, 3:51 AM)30.09 "Hg (Jun 25, 3:51 AM)
Low55 °F (Jun 25, 5:51 AM)19% (Jun 30, 8:51 PM)29.78 "Hg (Jun 30, 5:51 PM)
Average68 °F62%29.92 "Hg
* Reported Jun 22 5:51 AM — Jul 7 5:51 AM, Avalon (Santa Catalina Island), Weather by CustomWeather, © 2015

Note: Actual official high and low records may vary slightly from our data, if they occured in-between our weather recording intervals... More about our weather records

Advertising

Avalon (Santa Catalina Island) weather history for previous 24 hours

 ConditionsComfort  
Time TempWeatherWind HumidityBarometerVisibility
5:51 AM
Tue, Jul 7
57 °FFog.No wind100%29.98 "Hg0 mi
4:51 AM57 °FFog.No wind96%29.97 "Hg0 mi
3:51 AM57 °FFog.No wind96%29.97 "Hg0 mi
2:51 AM57 °FFog.6 mph100%29.98 "Hg0 mi
1:51 AM57 °FFog.3 mph100%29.99 "Hg0 mi
12:51 AM57 °FFog.6 mph100%30.00 "Hg0 mi
11:51 PM
Mon, Jul 6
57 °FFog.3 mph100%30.00 "Hg0 mi
10:51 PM57 °FFog.No wind100%30.01 "Hg0 mi
9:51 PM57 °FFog.6 mph100%30.01 "Hg0 mi
8:51 PM57 °FFog.8 mph100%29.99 "Hg0 mi
7:51 PM57 °FFog.12 mph100%29.98 "Hg0 mi
6:51 PM59 °FFog.9 mph93%29.98 "Hg1 mi
5:51 PM59 °FFog.9 mph93%29.98 "Hg1 mi
4:51 PM61 °FFog.12 mph87%29.98 "Hg2 mi
3:51 PM61 °FLow clouds.12 mph87%30.00 "Hg10 mi
2:51 PM61 °FFog.10 mph87%30.02 "Hg1 mi
1:51 PM60 °FFog.13 mph93%30.03 "Hg0 mi
12:51 PM59 °FFog.8 mph96%30.05 "Hg0 mi
11:51 AM61 °FLow clouds.5 mph87%30.06 "Hg10 mi
10:51 AM61 °FLow clouds.3 mph87%30.06 "Hg10 mi
9:58 AM57 °FFog.3 mph100%30.09 "Hg1 mi
8:51 AM57 °FFog.No wind100%30.06 "Hg0 mi
7:51 AM57 °FFog.5 mph100%30.05 "Hg0 mi
6:51 AM57 °FFog.3 mph100%30.04 "Hg0 mi
Weather by CustomWeather, © 2015

See weather overviewHow to use our weather pages